Change the Weather History Date:

Friday, January 17, 2014

  Actual Average Record
Temperature  
Mean Temperature 48 °F -  
Max Temperature 64 °F 53 °F 64 °F (2014)
Min Temperature 30 °F 32 °F 19 °F (2012)
Degree Days  
Heating Degree Days 17    
Moisture  
Dew Point 1 °F    
Average Humidity 15    
Maximum Humidity 27    
Minimum Humidity 7    
Precipitation  
Precipitation 0.00 in - - ()
Sea Level Pressure  
Sea Level Pressure 30.26 in    
Wind  
Wind Speed 10 mph (ESE)    
Max Wind Speed 18 mph    
Max Gust Speed 23 mph    
Visibility 10 miles    
Events      
Averages and records for this station are not official NWS values.
T = Trace of Precipitation, MM = Missing Value Source: NWS Daily Summary

Daily Weather History Graph

Daily Weather History Graph

Search for Another Location

Airport or City:

Trip Planner

Search our weather history database for the weather conditions in past years. The results will help you decide how hot, cold, wet, or windy it might be!

Date:

Astronomy

Jan. 17, 2014 Rise Set
Actual Time 7:00 AM PST 5:07 PM PST
Civil Twilight 6:33 AM PST 5:34 PM PST
Nautical Twilight 6:02 AM PST 6:05 PM PST
Astronomical Twilight 5:32 AM PST 6:36 PM PST
Moon 6:52 PM PST (1/17) 7:36 AM PST (1/17)
Length of Visible Light 11h 01m
Length of Day
10h 06m
Full, 98% of the Moon is Illuminated
Jan 17
Full
Jan 23
Last Quarter
Jan 30
New
Feb 6
First Quarter
Feb 14
Full

Hourly Weather History & Observations

Time (PST) Temp. Windchill Dew Point Humidity Pressure Visibility Wind Dir Wind Speed Gust Speed Precip Events Conditions
12:15 AM 46.4 °F 41.9 °F -0.4 °F 14% 30.27 in 10.0 mi ESE 9.2 mph - N/A   Clear
12:35 AM 46.4 °F 41.9 °F -0.4 °F 14% 30.27 in 10.0 mi ESE 9.2 mph - N/A   Clear
12:55 AM 44.6 °F 39.2 °F 1.4 °F 17% 30.27 in 10.0 mi ESE 10.4 mph - N/A   Clear
1:15 AM 46.4 °F 41.1 °F 1.4 °F 16% 30.27 in 10.0 mi ESE 11.5 mph - N/A   Clear
1:35 AM 46.4 °F 41.9 °F 1.4 °F 16% 30.27 in 10.0 mi ESE 9.2 mph - N/A   Clear
1:55 AM 46.4 °F 41.5 °F -0.4 °F 14% 30.27 in 10.0 mi East 10.4 mph - N/A   Clear
2:15 AM 42.8 °F 37.5 °F 1.4 °F 18% 30.27 in 10.0 mi East 9.2 mph - N/A   Clear
2:35 AM 46.4 °F 41.9 °F 1.4 °F 16% 30.28 in 10.0 mi ESE 9.2 mph - N/A   Clear
2:55 AM 48.2 °F - 1.4 °F 15% 30.28 in 10.0 mi East 9.2 mph - N/A   Clear
3:15 AM 48.2 °F - -0.4 °F 13% 30.27 in 10.0 mi ESE 8.1 mph - N/A   Clear
3:35 AM 48.2 °F - -0.4 °F 13% 30.27 in 10.0 mi ESE 9.2 mph - N/A   Clear
3:55 AM 48.2 °F - -0.4 °F 13% 30.27 in 10.0 mi East 11.5 mph - N/A   Clear
4:15 AM 48.2 °F - -0.4 °F 13% 30.28 in 10.0 mi East 9.2 mph - N/A   Clear
4:35 AM 46.4 °F 41.9 °F -0.4 °F 14% 30.28 in 10.0 mi East 9.2 mph - N/A   Clear
4:55 AM 48.2 °F - -0.4 °F 13% 30.28 in 10.0 mi East 10.4 mph - N/A   Clear
5:15 AM 42.8 °F 38.0 °F 1.4 °F 18% 30.28 in 10.0 mi East 8.1 mph - N/A   Clear
5:35 AM 42.8 °F 38.0 °F 1.4 °F 18% 30.28 in 10.0 mi ESE 8.1 mph - N/A   Clear
5:55 AM 37.4 °F 29.3 °F 1.4 °F 22% 30.28 in 10.0 mi SE 12.7 mph - N/A   Clear
6:15 AM 35.6 °F 27.1 °F 3.2 °F 26% 30.28 in 10.0 mi SE 12.7 mph - N/A   Clear
6:35 AM 35.6 °F 27.1 °F 3.2 °F 26% 30.28 in 10.0 mi ESE 12.7 mph - N/A   Clear
6:55 AM 37.4 °F 30.8 °F 1.4 °F 22% 30.28 in 10.0 mi ESE 9.2 mph - N/A   Clear
7:15 AM 35.6 °F 28.6 °F 1.4 °F 24% 30.28 in 10.0 mi ESE 9.2 mph - N/A   Clear
7:35 AM 46.4 °F 41.9 °F -0.4 °F 14% 30.29 in 8.0 mi ESE 9.2 mph - N/A   Clear
7:55 AM 50.0 °F - 1.4 °F 14% 30.29 in 9.0 mi East 10.4 mph - N/A   Clear
8:15 AM 50.0 °F - 1.4 °F 14% 30.29 in 10.0 mi ESE 11.5 mph - N/A   Clear
8:35 AM 53.6 °F - 1.4 °F 12% 30.29 in 9.0 mi ESE 11.5 mph - N/A   Clear
8:55 AM 55.4 °F - 1.4 °F 11% 30.30 in 10.0 mi East 8.1 mph - N/A   Clear
9:15 AM 57.2 °F - 3.2 °F 11% 30.30 in 8.0 mi ESE 12.7 mph 18.4 mph N/A   Clear
9:35 AM 59.0 °F - 1.4 °F 10% 30.30 in 9.0 mi ESE 13.8 mph - N/A   Clear
9:55 AM 60.8 °F - 1.4 °F 9% 30.31 in 8.0 mi ESE 12.7 mph 19.6 mph N/A   Clear
10:15 AM 62.6 °F - 1.4 °F 9% 30.30 in 10.0 mi ESE 15.0 mph 20.7 mph N/A   Clear
10:35 AM 62.6 °F - 1.4 °F 9% 30.30 in 9.0 mi SE 17.3 mph 23.0 mph N/A   Clear
10:55 AM 62.6 °F - 1.4 °F 9% 30.29 in 9.0 mi SE 15.0 mph 20.7 mph N/A   Clear
11:15 AM 64.4 °F - 1.4 °F 8% 30.28 in 10.0 mi SE 18.4 mph 21.9 mph N/A   Clear
11:35 AM 64.4 °F - 1.4 °F 8% 30.27 in 9.0 mi SE 18.4 mph 23.0 mph N/A   Clear
11:55 AM 64.4 °F - 1.4 °F 8% 30.26 in 8.0 mi SE 16.1 mph 23.0 mph N/A   Clear
12:15 PM 64.4 °F - 1.4 °F 8% 30.25 in 10.0 mi SE 17.3 mph - N/A   Clear
12:35 PM 64.4 °F - 1.4 °F 8% 30.24 in 10.0 mi SE 15.0 mph 19.6 mph N/A   Clear
12:55 PM 64.4 °F - 1.4 °F 8% 30.24 in 9.0 mi SE 16.1 mph 21.9 mph N/A   Clear
1:15 PM 64.4 °F - 1.4 °F 8% 30.23 in 10.0 mi SE 13.8 mph 19.6 mph N/A   Clear
1:35 PM 64.4 °F - 1.4 °F 8% 30.23 in 10.0 mi SE 13.8 mph - N/A   Clear
1:55 PM 64.4 °F - 1.4 °F 8% 30.22 in 9.0 mi SE 13.8 mph - N/A   Clear
2:15 PM 64.4 °F - 1.4 °F 8% 30.22 in 10.0 mi SE 15.0 mph - N/A   Clear
2:35 PM 64.4 °F - 1.4 °F 8% 30.22 in 10.0 mi SE 11.5 mph 17.3 mph N/A   Clear
2:55 PM 64.4 °F - -0.4 °F 7% 30.22 in 9.0 mi ESE 11.5 mph - N/A   Clear
3:15 PM 64.4 °F - -0.4 °F 7% 30.22 in 10.0 mi SE 11.5 mph - N/A   Clear
3:35 PM 62.6 °F - -0.4 °F 8% 30.22 in 10.0 mi SE 10.4 mph 17.3 mph N/A   Clear
3:55 PM 62.6 °F - -0.4 °F 8% 30.22 in 10.0 mi SE 9.2 mph - N/A   Clear
4:15 PM 62.6 °F - -0.4 °F 8% 30.22 in 10.0 mi SE 6.9 mph - N/A   Clear
4:35 PM 59.0 °F - -0.4 °F 9% 30.22 in 10.0 mi SSE 6.9 mph - N/A   Clear
4:55 PM 55.4 °F - -0.4 °F 10% 30.23 in 9.0 mi SE 5.8 mph - N/A   Clear
5:15 PM 51.8 °F - 1.4 °F 13% 30.23 in 10.0 mi East 6.9 mph - N/A   Clear
5:35 PM 50.0 °F - -0.4 °F 13% 30.23 in 10.0 mi East 6.9 mph - N/A   Clear
5:55 PM 44.6 °F 40.7 °F 1.4 °F 17% 30.23 in 10.0 mi ESE 6.9 mph - N/A   Clear
6:15 PM 41.0 °F 36.4 °F 1.4 °F 19% 30.23 in 10.0 mi ESE 6.9 mph - N/A   Clear
6:35 PM 41.0 °F - 1.4 °F 19% 30.23 in 10.0 mi Calm Calm - N/A   Clear
6:55 PM 44.6 °F 40.2 °F 1.4 °F 17% 30.23 in 10.0 mi ESE 8.1 mph - N/A   Clear
7:15 PM 39.2 °F - 1.4 °F 21% 30.23 in 10.0 mi Calm Calm - N/A   Clear
7:35 PM 39.2 °F 34.2 °F 1.4 °F 21% 30.24 in 10.0 mi ESE 6.9 mph - N/A   Clear
7:55 PM 39.2 °F - 1.4 °F 21% 30.24 in 10.0 mi Calm Calm - N/A   Clear
8:15 PM 39.2 °F 37.0 °F -0.4 °F 19% 30.24 in 10.0 mi ESE 3.5 mph - N/A   Clear
8:35 PM 39.2 °F 34.2 °F -0.4 °F 19% 30.24 in 10.0 mi ESE 6.9 mph - N/A   Clear
8:55 PM 39.2 °F 35.0 °F -0.4 °F 19% 30.24 in 10.0 mi ESE 5.8 mph - N/A   Clear
9:15 PM 37.4 °F 34.9 °F -0.4 °F 20% 30.24 in 10.0 mi East 3.5 mph - N/A   Clear
9:35 PM 32.0 °F - 1.4 °F 27% 30.25 in 10.0 mi Calm Calm - N/A   Clear
9:55 PM 35.6 °F 30.7 °F -0.4 °F 22% 30.25 in 10.0 mi SE 5.8 mph - N/A   Clear
10:15 PM 32.0 °F 26.4 °F -0.4 °F 25% 30.25 in 10.0 mi SE 5.8 mph - N/A   Clear
10:35 PM 32.0 °F 28.7 °F -0.4 °F 25% 30.25 in 10.0 mi ESE 3.5 mph - N/A   Clear
10:55 PM 32.0 °F - -0.4 °F 25% 30.25 in 10.0 mi Calm Calm - N/A   Clear
11:15 PM 32.0 °F - -0.4 °F 25% 30.25 in 10.0 mi Calm Calm - N/A   Clear
11:35 PM 32.0 °F - -0.4 °F 25% 30.24 in 10.0 mi Calm Calm - N/A   Clear
11:55 PM 30.2 °F - -0.4 °F 27% 30.24 in 10.0 mi Calm Calm - N/A   Clear